NR0A-4 Weather Reports


time (UTC)temp
F
wind
direction
speed
knots
gust
knots
rain 1hr
in
rain 24hr
in
rain mn
in
humidity
%
barometer
mb
20180120131342 30 34 0.0 0.0 0.00 0.00 0.00 88 1010.2
20180120130842 30 348 0.9 2.6 0.00 0.00 0.00 88 1010.1
20180120130342 30 357 0.9 1.7 0.00 0.00 0.00 88 1010.0
20180120125842 30 336 0.9 2.6 0.00 0.00 0.00 88 1009.9
20180120125346 30 359 0.0 0.0 0.00 0.00 0.00 88 1009.9
20180120124845 30 280 0.9 1.7 0.00 0.00 0.00 88 1009.9
20180120124752 30 353 0.9 1.7 0.00 0.00 0.00 88 1009.8
20180120124345 30 314 0.0 0.0 0.00 0.00 0.00 88 1009.8
20180120123845 30 329 0.9 4.3 0.00 0.00 0.00 88 1009.5
20180120123345 30 11 0.0 2.6 0.00 0.00 0.00 88 1009.7
20180120123252 30 357 0.9 1.7 0.00 0.00 0.00 88 1009.7
20180120122845 30 357 1.7 2.6 0.00 0.00 0.00 88 1009.5
20180120122346 30 346 0.0 0.0 0.00 0.00 0.00 88 1009.7
20180120121845 30 3 0.0 2.6 0.00 0.00 0.00 87 1009.5
20180120121345 30 0 1.7 2.6 0.00 0.00 0.00 87 1009.4
20180120120845 31 355 2.6 5.2 0.00 0.00 0.00 88 1009.4
20180120120345 31 33 0.9 2.6 0.00 0.00 0.00 87 1009.4
20180120115845 31 6 1.7 2.6 0.00 0.00 0.00 87 1009.3
20180120115345 31 333 2.6 5.2 0.00 0.00 0.00 87 1009.2
20180120114845 31 325 1.7 6.1 0.00 0.00 0.00 87 1009.3
20180120114345 31 335 2.6 5.2 0.00 0.00 0.00 88 1009.3
20180120113844 31 325 2.6 6.1 0.00 0.00 0.00 88 1009.3
20180120113752 31 331 2.6 6.1 0.00 0.00 0.00 88 1009.3
20180120113344 31 329 2.6 6.1 0.00 0.00 0.00 88 1009.4
20180120112845 31 339 2.6 6.1 0.00 0.00 0.00 88 1009.5
20180120112344 31 323 1.7 5.2 0.00 0.00 0.00 88 1009.5
20180120111845 31 337 4.3 7.8 0.00 0.00 0.00 88 1009.5
20180120111344 31 357 0.9 5.2 0.00 0.00 0.00 88 1009.4
20180120110844 31 350 2.6 5.2 0.00 0.00 0.00 88 1009.3
20180120110344 31 326 1.7 4.3 0.00 0.00 0.00 87 1009.3
20180120105844 31 344 4.3 7.8 0.00 0.00 0.00 87 1009.2
20180120105752 31 325 2.6 5.2 0.00 0.00 0.00 87 1009.2
20180120105343 31 303 2.6 5.2 0.00 0.00 0.00 87 1009.1
20180120104843 31 335 2.6 4.3 0.00 0.00 0.00 87 1009.1
20180120104343 31 1 4.3 5.2 0.00 0.00 0.00 87 1009.2
20180120103844 31 343 2.6 5.2 0.00 0.00 0.00 87 1009.2
20180120103343 31 331 2.6 6.1 0.00 0.00 0.00 87 1009.1
20180120102843 31 349 2.6 6.1 0.00 0.00 0.00 87 1009.0
20180120102343 31 340 4.3 7.0 0.00 0.00 0.00 87 1008.9
20180120101843 31 348 4.3 5.2 0.00 0.00 0.00 87 1008.9
20180120101343 32 322 0.9 2.6 0.00 0.00 0.00 87 1009.0
20180120100843 32 351 1.7 4.3 0.00 0.00 0.00 86 1008.9
20180120100343 32 3 1.7 4.3 0.00 0.00 0.00 86 1009.0
20180120095843 32 335 0.9 0.9 0.00 0.00 0.00 86 1009.0
20180120095346 32 334 1.7 5.2 0.00 0.00 0.00 86 1009.0
20180120094846 32 339 1.7 4.3 0.00 0.00 0.00 86 1009.1
20180120094346 32 346 1.7 2.6 0.00 0.00 0.00 86 1009.0
20180120093846 32 327 0.9 4.3 0.00 0.00 0.00 86 1009.2
20180120093346 32 347 0.9 4.3 0.00 0.00 0.00 86 1009.1
20180120092846 32 345 0.0 1.7 0.00 0.00 0.00 86 1009.2
20180120092346 32 322 0.0 0.9 0.00 0.00 0.00 87 1009.3
20180120091846 32 357 0.9 0.9 0.00 0.00 0.00 87 1009.1
20180120091346 32 1 0.0 1.7 0.00 0.00 0.00 87 1009.3
20180120090846 32 3 0.0 0.0 0.00 0.00 0.00 86 1009.3
20180120090346 32 3 0.0 0.0 0.00 0.00 0.00 86 1009.2
20180120085846 32 336 0.0 1.7 0.00 0.00 0.00 86 1009.2
20180120085346 32 291 0.0 0.0 0.00 0.00 0.00 86 1009.1
20180120084848 32 291 0.0 0.0 0.00 0.00 0.00 86 1009.2
20180120084346 32 291 0.0 0.0 0.00 0.00 0.00 86 1009.1
20180120083846 32 291 0.0 0.0 0.00 0.00 0.00 86 1009.1
20180120083346 32 291 0.0 0.0 0.00 0.00 0.00 86 1009.1
20180120082846 32 315 0.0 0.0 0.00 0.00 0.00 85 1009.0
20180120082346 32 315 0.0 0.0 0.00 0.00 0.00 85 1008.9
20180120081846 32 315 0.0 0.0 0.00 0.00 0.00 85 1008.8
20180120081346 32 315 0.0 0.0 0.00 0.00 0.00 85 1008.6
20180120080846 32 315 0.0 0.0 0.00 0.00 0.00 85 1008.6
20180120080345 32 315 0.0 0.0 0.00 0.00 0.00 85 1008.5
20180120075845 33 315 0.0 0.0 0.00 0.00 0.00 85 1008.5
20180120075345 32 315 0.0 0.0 0.00 0.00 0.00 85 1008.4
20180120074845 33 336 0.0 0.0 0.00 0.00 0.00 85 1008.4
20180120074345 33 336 0.0 0.0 0.00 0.00 0.00 84 1008.3
20180120073844 33 336 0.0 0.0 0.00 0.00 0.00 83 1008.3
20180120073345 33 336 0.0 0.0 0.00 0.00 0.00 83 1008.4
20180120072844 33 336 0.0 0.0 0.00 0.00 0.00 82 1008.4
20180120072344 33 336 0.0 0.0 0.00 0.00 0.00 82 1008.4
20180120071844 34 336 0.0 0.0 0.00 0.00 0.00 82 1008.4
20180120071344 34 336 0.0 0.0 0.00 0.00 0.00 82 1008.3
20180120070844 34 336 0.0 0.0 0.00 0.00 0.00 81 1008.3
20180120070344 34 336 0.0 0.0 0.00 0.00 0.00 81 1008.3
20180120065844 34 336 0.0 0.0 0.00 0.00 0.00 81 1008.2
20180120065344 35 336 0.0 0.0 0.00 0.00 0.00 81 1008.3
20180120064844 35 336 0.0 0.0 0.00 0.00 0.00 81 1008.4
20180120064344 35 336 0.0 0.0 0.00 0.00 0.00 81 1008.3
20180120063846 35 336 0.0 0.0 0.00 0.00 0.00 80 1008.3
20180120063344 35 336 0.0 0.0 0.00 0.00 0.00 80 1008.3
20180120062843 35 336 0.0 0.0 0.00 0.00 0.00 80 1008.3
20180120062342 35 336 0.0 0.0 0.00 0.00 0.00 80 1008.2
20180120061842 35 336 0.0 0.0 0.00 0.00 0.00 80 1008.3
20180120061343 35 336 0.0 0.0 0.00 0.00 0.00 80 1008.3
20180120060842 35 336 0.0 0.0 0.00 0.00 0.00 80 1008.1
20180120060342 35 336 0.0 0.0 0.00 0.00 0.00 80 1008.2
20180120055842 35 336 0.0 0.0 0.00 0.00 0.00 79 1008.1
20180120055342 35 336 0.0 0.0 0.00 0.00 0.00 79 1008.0
20180120054842 35 336 0.0 0.0 0.00 0.00 0.00 79 1007.9
20180120054342 35 336 0.0 0.0 0.00 0.00 0.00 78 1007.7
20180120053842 36 336 0.0 0.0 0.00 0.00 0.00 78 1007.7
20180120053346 36 336 0.0 0.0 0.00 0.00 0.00 78 1007.7
20180120052846 36 261 0.0 1.7 0.00 0.00 0.00 78 1007.7
20180120052346 36 288 0.0 1.7 0.00 0.00 0.00 78 1007.6
20180120051846 36 345 0.9 4.3 0.00 0.00 0.00 78 1007.6
20180120051346 36 31 0.9 1.7 0.00 0.00 0.00 78 1007.5
20180120050845 36 217 0.9 0.9 0.00 0.00 0.00 78 1007.5
20180120050345 36 268 0.9 1.7 0.00 0.00 0.00 78 1007.6
20180120045845 36 320 0.0 2.6 0.00 0.00 0.00 77 1007.9
20180120045345 36 272 0.0 0.0 0.00 0.00 0.00 77 1007.9
20180120044845 36 275 0.0 0.0 0.00 0.00 0.00 77 1007.7
20180120044345 36 293 1.7 5.2 0.00 0.00 0.00 77 1007.7
20180120043845 37 297 0.9 1.7 0.00 0.00 0.00 76 1007.7
20180120043345 37 282 0.9 1.7 0.00 0.00 0.00 76 1007.5
20180120042845 37 337 0.9 2.6 0.00 0.00 0.00 76 1007.5
20180120042345 37 284 0.9 0.9 0.00 0.00 0.00 76 1007.5
20180120041845 37 299 0.9 1.7 0.00 0.00 0.00 76 1007.5
20180120041345 37 307 0.9 1.7 0.00 0.00 0.00 75 1007.5
20180120040845 37 346 1.7 4.3 0.00 0.00 0.00 74 1007.2
20180120040345 37 316 0.9 1.7 0.00 0.00 0.00 74 1007.4
20180120035845 38 304 1.7 1.7 0.00 0.00 0.00 74 1007.5
20180120035345 37 311 0.9 1.7 0.00 0.00 0.00 74 1007.6
20180120034845 37 311 0.9 1.7 0.00 0.00 0.00 74 1007.5
20180120034345 37 318 0.9 0.9 0.00 0.00 0.00 74 1007.3
20180120033844 37 315 0.9 1.7 0.00 0.00 0.00 74 1007.3
20180120033344 38 316 0.0 0.0 0.00 0.00 0.00 74 1007.2
20180120032844 38 311 0.9 0.9 0.00 0.00 0.00 73 1007.1
20180120032344 38 319 0.9 0.9 0.00 0.00 0.00 73 1007.1
20180120031844 38 270 0.0 0.0 0.00 0.00 0.00 73 1007.1
20180120031344 38 273 0.0 0.0 0.00 0.00 0.00 73 1007.0
20180120030844 38 296 0.9 0.9 0.00 0.00 0.00 74 1007.0
20180120030345 38 325 0.0 0.0 0.00 0.00 0.00 73 1007.0
20180120025844 38 325 0.0 0.0 0.00 0.00 0.00 72 1007.2
20180120025343 38 325 0.0 0.0 0.00 0.00 0.00 72 1007.2
20180120024843 38 325 0.0 0.0 0.00 0.00 0.00 71 1007.1
20180120024343 39 325 0.0 0.0 0.00 0.00 0.00 71 1006.9
20180120023843 39 253 0.0 1.7 0.00 0.00 0.00 71 1007.0
20180120023343 39 237 0.0 0.0 0.00 0.00 0.00 70 1006.9
20180120022843 39 237 0.0 0.0 0.00 0.00 0.00 70 1006.8
20180120022343 39 237 0.0 0.0 0.00 0.00 0.00 70 1006.8
20180120021843 40 237 0.0 0.0 0.00 0.00 0.00 69 1006.8
20180120021343 40 237 0.0 0.0 0.00 0.00 0.00 68 1006.6
20180120020843 40 230 0.9 0.9 0.00 0.00 0.00 68 1006.5
20180120020343 41 245 0.0 1.7 0.00 0.00 0.00 67 1006.4
20180120015843 41 329 0.0 0.9 0.00 0.00 0.00 67 1006.2
20180120015343 41 308 0.9 1.7 0.00 0.00 0.00 67 1006.2
20180120014843 41 310 0.9 2.6 0.00 0.00 0.00 67 1006.1
20180120014343 41 304 1.7 2.6 0.00 0.00 0.00 67 1006.1
20180120013843 41 296 0.9 1.7 0.00 0.00 0.00 67 1005.9
20180120013343 41 319 1.7 2.6 0.00 0.00 0.00 67 1005.9
20180120012843 41 330 2.6 2.6 0.00 0.00 0.00 66 1005.9
20180120012346 41 341 1.7 4.3 0.00 0.00 0.00 66 1005.7
20180120011846 41 323 1.7 6.1 0.00 0.00 0.00 66 1005.7
20180120011346 42 334 2.6 4.3 0.00 0.00 0.00 65 1005.6
20180120010846 42 334 2.6 5.2 0.00 0.00 0.00 65 1005.8
20180120010346 42 336 1.7 2.6 0.00 0.00 0.00 64 1005.7
20180120005845 43 322 1.7 4.3 0.00 0.00 0.00 63 1005.8
20180120005345 43 330 1.7 2.6 0.00 0.00 0.00 62 1005.6
20180120004845 44 315 1.7 2.6 0.00 0.00 0.00 60 1005.5
20180120004345 45 315 1.7 2.6 0.00 0.00 0.00 58 1005.6
20180120003845 46 318 1.7 2.6 0.00 0.00 0.00 57 1005.6
20180120003344 47 312 1.7 2.6 0.00 0.00 0.00 55 1005.6
20180120002844 47 313 1.7 2.6 0.00 0.00 0.00 54 1005.5
20180120002344 48 309 0.9 1.7 0.00 0.00 0.00 54 1005.5
20180120001844 48 299 0.9 0.9 0.00 0.00 0.00 53 1005.5
20180120001344 48 302 0.0 0.0 0.00 0.00 0.00 52 1005.4
20180120000844 49 302 0.0 0.0 0.00 0.00 0.00 51 1005.3
20180120000344 49 302 0.0 0.0 0.00 0.00 0.00 51 1005.3
20180119235844 50 302 0.0 0.0 0.00 0.00 0.00 50 1005.1
20180119235344 50 302 0.0 0.0 0.00 0.00 0.00 49 1005.0
20180119234844 50 302 0.0 0.0 0.00 0.00 0.00 49 1004.7
20180119234344 50 302 0.0 0.0 0.00 0.00 0.00 49 1004.6
20180119233843 50 302 0.0 0.0 0.00 0.00 0.00 49 1004.5
20180119233342 51 302 0.0 0.0 0.00 0.00 0.00 49 1004.4
20180119232843 50 319 0.9 0.9 0.00 0.00 0.00 49 1004.3
20180119232342 50 196 0.0 0.0 0.00 0.00 0.00 50 1004.3
20180119231842 50 196 0.0 0.0 0.00 0.00 0.00 50 1004.1
20180119231342 51 196 0.0 0.0 0.00 0.00 0.00 50 1004.0
20180119230842 51 196 0.0 0.0 0.00 0.00 0.00 51 1003.9
20180119230342 51 196 0.0 0.0 0.00 0.00 0.00 52 1003.9
20180119225752 51 196 0.0 0.0 0.00 0.00 0.00 54 1003.8
20180119225252 51 196 0.0 0.0 0.00 0.00 0.00 54 1003.8
20180119224751 51 196 0.0 0.0 0.00 0.00 0.00 53 1003.7
20180119224251 51 196 0.0 0.0 0.00 0.00 0.00 53 1003.7
20180119223751 52 196 0.0 0.0 0.00 0.00 0.00 53 1003.7
20180119223251 52 196 0.0 0.0 0.00 0.00 0.00 53 1003.7
20180119222751 52 216 0.0 0.9 0.00 0.00 0.00 52 1003.5
20180119222251 52 223 0.0 0.0 0.00 0.00 0.00 52 1003.5
20180119221751 52 242 0.9 0.9 0.00 0.00 0.00 52 1003.4
20180119221251 52 206 0.9 0.9 0.00 0.00 0.00 52 1003.4
20180119220751 52 226 0.0 0.0 0.00 0.00 0.00 51 1003.3
20180119220251 52 217 2.6 4.3 0.00 0.00 0.00 51 1003.3
20180119215751 52 210 0.9 2.6 0.00 0.00 0.00 51 1003.2
20180119215251 52 193 1.7 1.7 0.00 0.00 0.00 51 1003.1
20180119214751 52 232 0.9 1.7 0.00 0.00 0.00 51 1002.9
20180119214251 52 225 0.9 1.7 0.00 0.00 0.00 51 1002.9
20180119213751 53 230 1.7 1.7 0.00 0.00 0.00 51 1002.8
20180119213251 53 211 1.7 2.6 0.00 0.00 0.00 50 1002.8
20180119212751 53 228 1.7 2.6 0.00 0.00 0.00 50 1002.7
20180119212251 53 224 2.6 4.3 0.00 0.00 0.00 50 1002.6
20180119211751 53 229 1.7 1.7 0.00 0.00 0.00 50 1002.3
20180119211250 53 228 1.7 4.3 0.00 0.00 0.00 49 1002.3
20180119210750 54 207 4.3 5.2 0.00 0.00 0.00 48 1002.2
20180119210250 54 199 2.6 2.6 0.00 0.00 0.00 48 1002.2
20180119205750 54 204 4.3 5.2 0.00 0.00 0.00 47 1002.3
20180119205249 54 212 4.3 5.2 0.00 0.00 0.00 47 1002.2
20180119204749 54 200 2.6 5.2 0.00 0.00 0.00 47 1002.3
20180119204248 54 156 0.9 0.9 0.00 0.00 0.00 47 1002.5
20180119203748 54 204 2.6 2.6 0.00 0.00 0.00 46 1002.3
20180119203248 54 230 2.6 4.3 0.00 0.00 0.00 46 1002.2
20180119202748 54 198 2.6 4.3 0.00 0.00 0.00 46 1002.3
20180119202248 54 213 4.3 5.2 0.00 0.00 0.00 46 1002.2
20180119201748 54 232 4.3 6.1 0.00 0.00 0.00 46 1002.0
20180119201248 54 205 5.2 7.0 0.00 0.00 0.00 46 1001.8
20180119200748 54 201 5.2 7.0 0.00 0.00 0.00 45 1001.9
20180119200248 54 215 4.3 7.0 0.00 0.00 0.00 46 1001.9
20180119195753 54 224 4.3 5.2 0.00 0.00 0.00 45 1001.9
20180119195253 54 202 5.2 7.0 0.00 0.00 0.00 44 1001.9
20180119194753 55 200 5.2 6.1 0.00 0.00 0.00 44 1001.9
20180119194252 55 175 2.6 6.1 0.00 0.00 0.00 44 1002.0
20180119193752 55 204 4.3 7.0 0.00 0.00 0.00 43 1002.2
20180119193252 55 167 4.3 7.0 0.00 0.00 0.00 43 1002.2
20180119192751 55 233 2.6 6.1 0.00 0.00 0.00 44 1002.5
20180119192251 54 200 2.6 5.2 0.00 0.00 0.00 43 1002.6
20180119191751 54 233 4.3 5.2 0.00 0.00 0.00 44 1002.6
20180119191250 54 221 1.7 5.2 0.00 0.00 0.00 46 1002.7
20180119190750 53 179 2.6 5.2 0.00 0.00 0.00 46 1002.7
20180119190250 53 198 5.2 6.1 0.00 0.00 0.00 45 1002.6
20180119185750 53 180 5.2 7.0 0.00 0.00 0.00 45 1002.6
20180119185250 53 208 5.2 7.0 0.00 0.00 0.00 44 1002.7
20180119184750 53 197 5.2 6.1 0.00 0.00 0.00 44 1002.9
20180119184249 52 201 4.3 6.1 0.00 0.00 0.00 45 1003.0
20180119183748 52 225 5.2 7.0 0.00 0.00 0.00 46 1003.1
20180119183248 51 223 4.3 7.0 0.00 0.00 0.00 47 1003.1
20180119182748 51 226 4.3 6.1 0.00 0.00 0.00 48 1003.1
20180119182248 50 222 5.2 7.8 0.00 0.00 0.00 48 1003.1
20180119181748 50 222 5.2 7.0 0.00 0.00 0.00 49 1003.2
20180119181248 49 211 5.2 7.0 0.00 0.00 0.00 51 1003.2
20180119180753 48 211 4.3 7.0 0.00 0.00 0.00 52 1003.5
20180119180253 48 218 6.1 8.7 0.00 0.00 0.00 52 1003.6
20180119175753 48 218 4.3 6.1 0.00 0.00 0.00 52 1003.7
20180119175253 48 220 5.2 7.0 0.00 0.00 0.00 52 1003.9
20180119174753 48 212 4.3 7.0 0.00 0.00 0.00 52 1004.0
20180119174253 47 222 5.2 7.0 0.00 0.00 0.00 53 1004.0
20180119173753 47 228 5.2 5.2 0.00 0.00 0.00 54 1004.1
20180119173252 47 230 6.1 7.8 0.00 0.00 0.00 54 1004.4
20180119172753 46 222 4.3 6.1 0.00 0.00 0.00 55 1004.4
20180119172251 45 232 2.6 4.3 0.00 0.00 0.00 56 1004.3
20180119171751 45 236 1.7 4.3 0.00 0.00 0.00 58 1004.4
20180119171251 44 203 4.3 5.2 0.00 0.00 0.00 58 1004.4
20180119170751 43 216 4.3 7.0 0.00 0.00 0.00 59 1004.4
20180119170251 43 219 2.6 5.2 0.00 0.00 0.00 61 1004.4
20180119165751 42 209 5.2 7.0 0.00 0.00 0.00 61 1004.3
20180119165251 42 210 2.6 5.2 0.00 0.00 0.00 62 1004.1
20180119164750 41 197 4.3 5.2 0.00 0.00 0.00 63 1004.3
20180119164250 41 204 5.2 7.0 0.00 0.00 0.00 64 1004.4
20180119163750 40 207 5.2 6.1 0.00 0.00 0.00 65 1004.5
20180119163250 39 208 4.3 6.1 0.00 0.00 0.00 67 1004.5
20180119162750 39 223 4.3 5.2 0.00 0.00 0.00 69 1004.6
20180119162250 38 220 2.6 4.3 0.00 0.00 0.00 69 1004.5
20180119161750 38 207 2.6 5.2 0.00 0.00 0.00 69 1004.6
20180119161250 38 214 2.6 6.1 0.00 0.00 0.00 69 1004.5
20180119160749 37 222 4.3 4.3 0.00 0.00 0.00 69 1004.6
20180119160248 37 215 2.6 4.3 0.00 0.00 0.00 69 1004.5
20180119155752 37 209 4.3 4.3 0.00 0.00 0.00 69 1004.6
20180119155252 36 209 5.2 6.1 0.00 0.00 0.00 70 1004.5
20180119154752 36 223 2.6 4.3 0.00 0.00 0.00 71 1004.5
20180119154252 36 205 4.3 5.2 0.00 0.00 0.00 71 1004.5
20180119153753 35 215 2.6 4.3 0.00 0.00 0.00 71 1004.7
20180119153252 35 208 2.6 6.1 0.00 0.00 0.00 72 1004.6
20180119152752 34 228 2.6 2.6 0.00 0.00 0.00 73 1004.6
20180119152252 34 224 2.6 2.6 0.00 0.00 0.00 73 1004.6
20180119151751 34 231 2.6 4.3 0.00 0.00 0.00 74 1004.6
20180119151250 33 224 2.6 4.3 0.00 0.00 0.00 74 1004.6
20180119150750 33 225 1.7 2.6 0.00 0.00 0.00 74 1004.5
20180119150250 33 222 2.6 4.3 0.00 0.00 0.00 74 1004.5
20180119145750 33 220 1.7 1.7 0.00 0.00 0.00 74 1004.5
20180119145250 33 216 1.7 2.6 0.00 0.00 0.00 73 1004.5
20180119144750 33 207 2.6 5.2 0.00 0.00 0.00 73 1004.5
20180119144250 33 204 4.3 4.3 0.00 0.00 0.00 72 1004.5
20180119143749 33 208 4.3 5.2 0.00 0.00 0.00 72 1004.5
20180119143253 33 201 2.6 4.3 0.00 0.00 0.00 73 1004.3
20180119142753 33 200 4.3 5.2 0.00 0.00 0.00 74 1004.4
20180119142253 33 180 2.6 5.2 0.00 0.00 0.00 74 1004.4
20180119141753 33 186 2.6 5.2 0.00 0.00 0.00 74 1004.3
20180119141253 32 199 4.3 6.1 0.00 0.00 0.00 75 1004.4
20180119140753 32 179 1.7 2.6 0.00 0.00 0.00 75 1004.4
20180119140253 32 179 1.7 2.6 0.00 0.00 0.00 75 1004.4
20180119135752 32 165 1.7 5.2 0.00 0.00 0.00 74 1004.5
20180119135252 32 205 2.6 4.3 0.00 0.00 0.00 75 1004.5
20180119134751 33 202 2.6 4.3 0.00 0.00 0.00 74 1004.5
20180119134251 33 182 0.9 1.7 0.00 0.00 0.00 74 1004.6
20180119133751 34 226 1.7 1.7 0.00 0.00 0.00 72 1004.7
20180119133251 34 215 1.7 2.6 0.00 0.00 0.00 72 1004.6
20180119132751 34 207 1.7 4.3 0.00 0.00 0.00 71 1004.6
20180119132251 35 236 1.7 2.6 0.00 0.00 0.00 71 1004.6
20180119131751 35 206 1.7 4.3 0.00 0.00 0.00 71 1004.5